[[{"header":{"parameterUnit":"m.s-1","parameterCategory":1,"la1":30.2991,"la2":30.254,"lo1":-89.0895,"lo2":-89.0444,"dy":0.0017,"dx":0.0017,"nx":28,"ny":28,"refTime":"2023-08-11T21:00:00:Z","depth":0,"parameterNumber":2,"parameterNumberName":"U-component_of_WINDS"},"data":[0,0,0,0,0,0,0,0,0,0,0,0,0,0,0,0,0,0,0,0,0,0,0,0,0,0,0,0,0,0,0,0,0,0,0,0,0,0,0,0,0,0,0,0,0,0,0,0,0,0,0,0,0,0,0,0,0,0,4.2321,4.2322,0,4.2375,4.2375,4.2376,4.2355,4.2353,4.2352,4.2351,4.2408,4.241,4.2413,0,0,0,0,0,0,0,0,0,0,0,0,0,4.2203,4.2205,4.2321,4.2322,4.2322,4.2375,4.2375,4.2376,4.2355,4.2353,4.2352,4.235,4.2407,4.241,4.2413,0,0,0,0,0,0,0,0,0,0,0,0,0,4.2255,4.2206,4.2321,4.2318,4.2318,4.2374,4.2375,4.2376,4.2355,4.2353,4.2351,4.235,4.2406,4.2409,4.2413,4.2476,0,0,4.2426,4.2428,0,0,0,0,0,0,0,0,4.2252,4.226,4.2318,4.2318,4.2319,4.2356,4.2354,4.241,4.2356,4.2341,4.2351,4.2349,4.2392,4.2397,4.2411,4.2479,4.2481,4.2426,4.2429,4.243,4.2431,0,0,0,0,0,0,0,4.2249,4.2257,4.2342,4.2319,4.2319,4.2315,4.232,4.2365,4.2377,4.2342,4.2341,4.2347,4.2392,4.2407,4.2412,4.2482,4.2426,4.243,4.2432,4.2434,4.2606,4.2608,0,0,0,0,0,0,4.2245,4.2254,4.2341,4.2344,4.228,4.2319,4.2325,4.2346,4.2376,4.2379,4.2349,4.2346,4.2401,4.2408,4.2414,4.2491,4.243,4.2434,4.2436,4.2604,4.2606,4.2609,0,0,0,0,0,0,4.2242,4.2253,4.2338,4.2299,4.2309,4.2323,4.2347,4.2348,4.2363,4.2381,4.2383,4.2363,4.24,4.2409,4.2461,4.2493,4.2436,4.244,4.2601,4.2605,4.2608,4.2644,0,0,0,0,0,0,4.2239,4.2252,4.2275,4.2299,4.2312,4.2384,4.2349,4.235,4.237,4.2367,4.2394,4.2397,4.2399,4.2455,4.2465,4.2497,4.2443,4.2599,4.2603,4.2607,4.264,4.2648,4.2655,0,0,0,0,0,4.2235,4.2283,4.2276,4.2287,4.2341,4.2385,4.2392,4.2394,4.2373,4.2397,4.2409,4.2396,4.2488,4.2461,4.2472,4.2506,4.2597,4.2602,4.2606,4.2637,4.2647,4.2655,0,0,0,0,0,0,4.2262,4.2286,4.2279,4.2336,4.2359,4.2382,4.2412,4.2404,4.2433,4.2429,4.243,4.2436,4.2491,4.2503,4.2473,4.2569,4.2539,4.2546,4.2559,4.2568,4.2575,4.2572,4.2446,0,0,0,0,0,4.2275,4.2308,4.2328,4.2377,4.2389,4.2398,4.2418,4.2417,4.2441,4.245,4.2466,4.249,4.2524,4.2547,4.2579,4.2642,4.2649,4.2671,4.2678,4.2684,4.2691,4.2727,4.2737,4.2625,4.2625,4.2625,0,0,4.2302,4.2319,4.234,4.2383,4.24,4.2436,4.2407,4.2445,4.2472,4.2456,4.2507,4.252,4.2547,4.2605,4.2632,4.2617,4.2723,4.269,4.2695,4.2698,4.2733,4.2744,4.2753,4.2628,4.2627,4.2627,0,0,4.2369,4.2384,4.2428,4.2446,4.2473,4.2479,4.249,4.2514,4.2522,4.2573,4.2562,4.2595,4.2653,4.2674,4.2692,4.2768,4.2759,4.2779,4.2818,4.2853,4.2862,4.287,4.2899,4.2909,4.2785,4.2785,4.2785,0,4.2399,4.2451,4.2451,4.2491,4.2511,4.2498,4.2543,4.2561,4.2597,4.2612,4.2595,4.267,4.2687,4.2751,4.277,4.2784,4.2797,4.2776,4.2861,4.2869,4.2876,4.2903,4.2914,4.2788,4.2787,4.2787,4.2787,0,4.2488,4.2525,4.2557,4.2592,4.2615,4.2658,4.2665,4.2689,4.2687,4.2695,4.2748,4.2769,4.2806,4.2821,4.2819,4.2885,4.2876,4.286,4.283,4.2889,4.2915,4.2925,4.2791,4.279,4.2789,4.2789,0,0,4.2573,4.2609,4.262,4.2637,4.2666,4.2696,4.2738,4.2774,4.2795,4.2821,4.2858,4.2908,4.2894,4.2915,4.2915,4.2946,4.3007,4.2927,4.2927,4.2942,4.3084,4.3096,4.3108,4.3001,4.3003,4.3004,4.3082,0,4.2643,4.2717,4.2719,4.2787,4.2822,4.2811,4.2848,4.2871,4.2881,4.2913,4.2923,4.296,4.2938,4.2951,4.298,4.2993,4.3036,4.2988,4.3036,4.3038,4.3031,4.3121,4.3134,4.3206,4.3092,4.3093,4.3095,0,4.2735,4.2764,4.2836,4.2861,4.2876,4.291,4.2944,4.2974,4.3,4.3005,4.3029,4.3025,4.307,4.3038,4.3101,4.3068,4.3088,4.3098,4.3101,4.3106,4.307,4.313,4.3229,4.324,4.311,4.3109,4.3108,0,4.2792,4.2849,4.29,4.2914,4.2945,4.2969,4.2983,4.3007,4.3029,4.3059,4.3074,4.3109,4.3129,4.3156,4.3163,4.3139,4.3226,4.3194,4.3233,4.3233,4.3252,4.3251,4.3356,4.3263,4.3263,4.3263,4.3263,0,4.2871,4.2916,4.2926,4.2957,4.3007,4.3009,4.3059,4.3072,4.3094,4.3128,4.3121,4.3153,4.3159,4.3193,4.3199,4.3251,4.3259,4.3265,4.3267,4.3267,4.3266,4.328,4.3276,4.3266,4.3265,4.3265,4.3264,0,4.2943,4.2952,4.3006,4.3031,4.3039,4.3075,4.3097,4.3127,4.3136,4.318,4.319,4.3205,4.3245,4.3254,4.3302,4.3305,4.3368,4.3363,4.3359,4.3359,4.3397,4.3393,4.3516,4.3533,4.3428,4.3429,4.3429,0,4.2994,4.3028,4.3057,4.3079,4.3094,4.313,4.3153,4.3157,4.3181,4.3214,4.3241,4.328,4.3312,4.3377,4.3393,4.343,4.3427,4.3467,4.3432,4.3432,4.3429,4.3427,4.3431,4.3474,4.3475,4.3476,4.3477,0,4.3083,4.3085,4.3118,4.3153,4.318,4.3207,4.3233,4.3252,4.326,4.3288,4.3329,4.3353,4.3402,4.3442,4.3479,4.3495,4.3488,4.3488,4.3499,4.35,4.3496,4.35,4.3378,4.3485,4.3484,4.3483,4.3483,4.3483,4.3147,4.3177,4.3202,4.3239,4.3259,4.3284,4.3315,4.3328,4.3362,4.3401,4.3402,4.3447,4.3474,4.3523,4.3541,4.3577,4.3565,4.3581,4.3585,4.3589,4.3593,4.349,4.3584,4.3584,4.3584,4.3583,4.3583,0,4.3236,4.3252,4.3286,4.3323,4.3353,4.3343,4.3372,4.3397,4.3437,4.3462,4.3494,4.3541,4.358,4.3599,4.3638,4.3663,4.3661,4.3673,4.3672,4.3676,4.3601,4.3588,4.3675,4.3675,4.3675,4.3675,4.3674,4.3674,4.3287,4.3338,4.3344,4.3406,4.3421,4.3465,4.3483,4.3506,4.3527,4.358,4.3612,4.3624,4.3647,4.3688,4.3724,4.3728,4.3743,4.3758,4.3761,4.369,4.3681,4.3672,4.366,4.3761,4.3761,4.3833,4.3834,4.3834]},{"header":{"parameterUnit":"m.s-1","parameterCategory":1,"la1":30.2991,"la2":30.254,"lo1":-89.0895,"lo2":-89.0444,"dy":0.0017,"dx":0.0017,"nx":28,"ny":28,"refTime":"2023-08-11T21:00:00:Z","depth":0,"parameterNumber":3,"parameterNumberName":"V-component_of_WINDS"},"data":[0,0,0,0,0,0,0,0,0,0,0,0,0,0,0,0,0,0,0,0,0,0,0,0,0,0,0,0,0,0,0,0,0,0,0,0,0,0,0,0,0,0,0,0,0,0,0,0,0,0,0,0,0,0,0,0,0,0,-0.6226,-0.6226,0,-0.6235,-0.6235,-0.6235,-0.6244,-0.6244,-0.6244,-0.6244,-0.6253,-0.6253,-0.6253,0,0,0,0,0,0,0,0,0,0,0,0,0,-0.6217,-0.6217,-0.6226,-0.6226,-0.6226,-0.6235,-0.6235,-0.6235,-0.6244,-0.6244,-0.6244,-0.6244,-0.6252,-0.6253,-0.6253,0,0,0,0,0,0,0,0,0,0,0,0,0,-0.6223,-0.6217,-0.6226,-0.6232,-0.6232,-0.6235,-0.6235,-0.6235,-0.6244,-0.6244,-0.6244,-0.6244,-0.6252,-0.6253,-0.6253,-0.625,0,0,-0.6253,-0.6253,0,0,0,0,0,0,0,0,-0.6222,-0.6223,-0.6231,-0.6231,-0.6232,-0.6239,-0.6235,-0.624,-0.6244,-0.6239,-0.6244,-0.6244,-0.6248,-0.6248,-0.625,-0.6251,-0.6251,-0.6253,-0.6253,-0.6253,-0.6254,0,0,0,0,0,0,0,-0.6222,-0.6223,-0.623,-0.6231,-0.6232,-0.6234,-0.6235,-0.6236,-0.6242,-0.624,-0.624,-0.6241,-0.6248,-0.6249,-0.625,-0.6251,-0.6253,-0.6253,-0.6254,-0.6254,-0.6253,-0.6253,0,0,0,0,0,0,-0.6221,-0.6222,-0.6229,-0.623,-0.6228,-0.6234,-0.6235,-0.6236,-0.6242,-0.6244,-0.6241,-0.6242,-0.6249,-0.625,-0.625,-0.6249,-0.6253,-0.6254,-0.6254,-0.6253,-0.6253,-0.6253,0,0,0,0,0,0,-0.622,-0.6221,-0.6229,-0.6226,-0.6227,-0.6234,-0.6235,-0.6236,-0.6238,-0.6244,-0.6245,-0.6241,-0.6249,-0.625,-0.6251,-0.6249,-0.6254,-0.6254,-0.6253,-0.6253,-0.6253,-0.6245,0,0,0,0,0,0,-0.622,-0.6221,-0.622,-0.6226,-0.6228,-0.6229,-0.6235,-0.6236,-0.6238,-0.6239,-0.6244,-0.6245,-0.6249,-0.625,-0.6251,-0.6249,-0.6254,-0.6253,-0.6253,-0.6253,-0.6246,-0.6245,-0.6244,0,0,0,0,0,-0.622,-0.6217,-0.622,-0.6221,-0.6226,-0.6229,-0.623,-0.6235,-0.6238,-0.6237,-0.6241,-0.6245,-0.6249,-0.625,-0.6251,-0.6249,-0.6253,-0.6253,-0.6253,-0.6246,-0.6245,-0.6244,0,0,0,0,0,0,-0.621,-0.6218,-0.6221,-0.622,-0.6224,-0.623,-0.6229,-0.6233,-0.6236,-0.6237,-0.6243,-0.6244,-0.6244,-0.6247,-0.6248,-0.6248,-0.6252,-0.6252,-0.6247,-0.6246,-0.6245,-0.6244,-0.6254,0,0,0,0,0,-0.6208,-0.6209,-0.6216,-0.6215,-0.6216,-0.6223,-0.6224,-0.6228,-0.6232,-0.6233,-0.6237,-0.6241,-0.6243,-0.6245,-0.6247,-0.6246,-0.6248,-0.6246,-0.6245,-0.6244,-0.6244,-0.6245,-0.6244,-0.6252,-0.6252,-0.6252,0,0,-0.6203,-0.6207,-0.6208,-0.6213,-0.6216,-0.6218,-0.6224,-0.6225,-0.6227,-0.6233,-0.6235,-0.6238,-0.6243,-0.6243,-0.6243,-0.6245,-0.6243,-0.6244,-0.6243,-0.6243,-0.6245,-0.6244,-0.6243,-0.6251,-0.6251,-0.6251,0,0,-0.6195,-0.6198,-0.6198,-0.6202,-0.6207,-0.6212,-0.6212,-0.6218,-0.6221,-0.6222,-0.6228,-0.623,-0.6233,-0.6237,-0.6239,-0.6234,-0.6238,-0.6235,-0.6231,-0.6232,-0.6231,-0.6231,-0.623,-0.623,-0.6235,-0.6235,-0.6235,0,-0.6188,-0.6191,-0.6197,-0.6199,-0.6201,-0.6209,-0.6209,-0.6212,-0.6217,-0.6219,-0.6221,-0.6227,-0.6231,-0.6232,-0.6232,-0.6233,-0.6234,-0.6234,-0.6231,-0.623,-0.623,-0.6229,-0.6229,-0.6234,-0.6234,-0.6234,-0.6235,0,-0.6183,-0.6185,-0.6184,-0.619,-0.6193,-0.6193,-0.62,-0.6202,-0.6206,-0.6211,-0.6213,-0.6218,-0.6222,-0.6223,-0.6226,-0.6225,-0.6227,-0.623,-0.6233,-0.6229,-0.6228,-0.6228,-0.6234,-0.6234,-0.6234,-0.6234,0,0,-0.6168,-0.6179,-0.6179,-0.6182,-0.6189,-0.6191,-0.6193,-0.6197,-0.6199,-0.6203,-0.6205,-0.6209,-0.6212,-0.6215,-0.6219,-0.622,-0.6217,-0.6223,-0.6223,-0.6222,-0.6218,-0.6216,-0.6215,-0.622,-0.622,-0.622,-0.6218,0,-0.6162,-0.6165,-0.6172,-0.6173,-0.6176,-0.6183,-0.6185,-0.619,-0.6194,-0.6197,-0.6202,-0.6205,-0.6209,-0.6211,-0.6212,-0.6217,-0.6217,-0.6218,-0.6222,-0.6222,-0.6221,-0.6215,-0.6212,-0.6209,-0.6218,-0.6218,-0.6217,0,-0.6154,-0.6159,-0.6161,-0.6169,-0.6171,-0.6172,-0.6178,-0.618,-0.6186,-0.619,-0.6193,-0.6199,-0.6201,-0.6205,-0.6209,-0.621,-0.6212,-0.6215,-0.6215,-0.6216,-0.622,-0.6216,-0.6209,-0.6208,-0.6217,-0.6217,-0.6217,0,-0.6144,-0.6151,-0.6153,-0.6156,-0.6165,-0.6166,-0.6171,-0.6177,-0.618,-0.6185,-0.6187,-0.6192,-0.6194,-0.6198,-0.6205,-0.6207,-0.6209,-0.6213,-0.6212,-0.6212,-0.6212,-0.6212,-0.6206,-0.6213,-0.6213,-0.6213,-0.6213,0,-0.6137,-0.6138,-0.6149,-0.615,-0.6152,-0.616,-0.6161,-0.6166,-0.6172,-0.6175,-0.6182,-0.6184,-0.6193,-0.6197,-0.6202,-0.6205,-0.6206,-0.621,-0.6211,-0.6209,-0.6209,-0.6211,-0.6211,-0.6213,-0.6213,-0.6213,-0.6213,0,-0.6125,-0.6133,-0.6136,-0.6145,-0.6148,-0.6149,-0.6157,-0.6159,-0.6165,-0.6168,-0.617,-0.6178,-0.6183,-0.619,-0.6197,-0.6201,-0.6204,-0.6206,-0.6202,-0.6202,-0.6202,-0.6202,-0.6197,-0.6197,-0.6204,-0.6204,-0.6204,0,-0.612,-0.6121,-0.6131,-0.6134,-0.6138,-0.6142,-0.6145,-0.6153,-0.6157,-0.6165,-0.6166,-0.6172,-0.6177,-0.6184,-0.6191,-0.6197,-0.6199,-0.6197,-0.62,-0.6199,-0.62,-0.62,-0.6201,-0.6196,-0.6196,-0.6196,-0.6196,0,-0.611,-0.6114,-0.6118,-0.6125,-0.6129,-0.6134,-0.614,-0.6142,-0.6151,-0.6155,-0.616,-0.6164,-0.6172,-0.6178,-0.6185,-0.6189,-0.6195,-0.6195,-0.6196,-0.6194,-0.6191,-0.6193,-0.62,-0.6195,-0.6195,-0.6195,-0.6195,-0.6195,-0.6101,-0.6103,-0.6111,-0.6117,-0.6122,-0.6128,-0.613,-0.6137,-0.6142,-0.6149,-0.6154,-0.6159,-0.6167,-0.6177,-0.6181,-0.6186,-0.6188,-0.6188,-0.6188,-0.6188,-0.6188,-0.6191,-0.6187,-0.6187,-0.6187,-0.6187,-0.6187,0,-0.6092,-0.6098,-0.6103,-0.6111,-0.6116,-0.6121,-0.6128,-0.6131,-0.6136,-0.6143,-0.6148,-0.6155,-0.6161,-0.6169,-0.6176,-0.6179,-0.6181,-0.618,-0.618,-0.6181,-0.6185,-0.6185,-0.6178,-0.6178,-0.6178,-0.6178,-0.6178,-0.6178,-0.6088,-0.6092,-0.6097,-0.6104,-0.611,-0.6116,-0.612,-0.6125,-0.6131,-0.6138,-0.6144,-0.6149,-0.6157,-0.6164,-0.6171,-0.6173,-0.6175,-0.6173,-0.6176,-0.618,-0.6181,-0.6182,-0.6181,-0.6174,-0.6174,-0.6172,-0.6172,-0.6172]}]]